Home   Weather   Warminster Township   Past weeks

Flag for USA Past Weather in Warminster Township, Pennsylvania, USA — Yesterday and Last 2 Weeks

Now
52 °F

Clear.


Feels Like: 52 °F
Forecast: 37 / 52 °F
Wind: No wind

Location: Doylestown Airport

Current Time: Feb 20, 2017 at 1:40:34 am

Latest Report: Feb 20, 2017 at 12:54 am


Visibility: 10 mi

Pressure: 30.02 "Hg

Humidity: N/A

Dew Point: N/A

Location of Warminster TownshipLocation

Past Weather in Warminster Township — Graph

°F

Warminster Township Temperature Yesterday

Maximum temperature yesterday: 70 °F (at 1:54 pm)
Minimum temperature yesterday: 48 °F (at 10:54 pm)
Average temperature yesterday: 59 °F

High & Low Weather Summary for the Past Weeks

 TemperatureHumidityPressure
High70 °F (Feb 19, 1:54 pm)100% (Feb 7, 10:54 am)30.27 "Hg (Feb 7, 10:54 am)
Low19 °F (Feb 9, 10:54 pm)25% (Feb 18, 3:54 pm)29.35 "Hg (Feb 15, 1:54 pm)
Average39 °F63%29.83 "Hg
* Reported Feb 4 11:54 pm — Feb 19 11:54 pm, Warminster Township, Weather by CustomWeather, © 2017

Note: Actual official high and low records may vary slightly from our data, if they occured in-between our weather recording intervals... More about our weather records

Advertising

Warminster Township Weather History for the Previous 24 Hours

Scroll right to see more
 ConditionsComfort  
Time TempWeatherWind HumidityBarometerVisibility
11:54 pm
Sun, Feb 19
50 °FClear.No windN/A30.00 "Hg10 mi
10:54 pm48 °FClear.No windN/A29.98 "Hg10 mi
9:54 pm54 °FClear.3 mphN/A29.96 "Hg10 mi
8:54 pm52 °FClear.No windN/A29.93 "Hg10 mi
7:54 pm55 °FClear.No windN/A29.91 "Hg10 mi
6:54 pm55 °FClear.No windN/A29.90 "Hg10 mi
5:54 pm62 °FClear.5 mph38%29.88 "Hg10 mi
4:54 pm67 °FSunny.10 mph30%29.86 "Hg10 mi
3:54 pm69 °FSunny.9 mph26%29.83 "Hg10 mi
2:54 pm70 °FSunny.10 mph27%29.82 "Hg10 mi
1:54 pm70 °FSunny.7 mph29%29.81 "Hg10 mi
12:54 pm66 °FSunny.9 mph37%29.83 "Hg10 mi
11:54 am64 °FSunny.12 mph41%29.84 "Hg10 mi
10:54 am64 °FSunny.14 mph43%29.84 "Hg10 mi
9:54 am62 °FPassing clouds.13 mph44%29.84 "Hg10 mi
8:54 am58 °FBroken clouds.8 mph50%29.83 "Hg10 mi
7:54 am57 °FOvercast.6 mph49%29.81 "Hg10 mi
6:54 am56 °FOvercast.5 mph47%29.78 "Hg10 mi
5:54 am54 °FOvercast.5 mph47%29.77 "Hg10 mi
4:54 am57 °FPassing clouds.3 mph41%29.75 "Hg10 mi
3:54 am57 °FOvercast.3 mph39%29.73 "Hg10 mi
2:54 am53 °FPassing clouds.6 mph45%29.73 "Hg10 mi
1:54 am54 °FPassing clouds.7 mph45%29.73 "Hg10 mi
Weather by CustomWeather, © 2017

See weather overviewHow to use our weather pages